Aeroporto :
LOGIN :

Iscrizione | Disclaimer

   EN    FR    IT 

 










Sommario :    VFR   VFR Marginale   IFR   IFR Intensivo   IFR Molto Intensivo
Visibilità : 
Base nubi : 
>= 8 km
>= 3000ft
5 / 8 km
1000 / 3000 ft
1500m / 5 km
500 / 1000 ft
800 / 1500m
200 / 500 ft
< 800m
< 200 ft
Simboli :   Temporali  Nebbia  Neve Forte  Precipitazioni Forti  Vento > 20 kt
SIGMETs :   Varie  Temporali  Ghiacco  Turbolenza  Onda orograficha  Ceneri Vulcaniche







- Altitudine del aeroporto : 55 ft
- Codice IATA : DSA
- Carte del aeroporto


EGCN - Robin Hood Doncaster Sheffield

ULTIMO METAR :
  • 181150Z 15007KT CAVOK 02/M02 Q1016

METARs OBSOLETI :
  • 181120Z 15007KT CAVOK 01/M02 Q1016
  • 181050Z 14005KT CAVOK 01/M01 Q1016
  • 181020Z 14005KT CAVOK 01/M01 Q1017
  • 180950Z 13004KT CAVOK 00/M01 Q1017
  • 180920Z 12004KT CAVOK 00/M02 Q1017

TAF TAF EGCN
Valido dal 18 a 12 ore il 19 a 12 ore UTC


181057Z 1812/1912 16009KT CAVOK
BECMG 1814/1817 FEW015 BKN025
TEMPO 1815/1912 7000 -RA
BECMG 1817/1820 BKN012
PROB30
TEMPO 1817/1906 3500 RASN -SN BKN005
PROB30
TEMPO 1906/1912 4000 RADZ BKN005
Nessun NOTAM noto per questo aeroporto.



MetMap, La meteo Aeronautica in un colpo d'occhio ! - Copyright ORBIFLY Dicembre 2007 - Disclaimer

ORBIFLY MET'MAP TEAM :

Programmazione e sviluppo : Alexandra Zaïnal
Concezione e sviluppo : Baudouin d'Aumeries
Co-Programmazione e sviluppo : Marc-Olivier Méhu
Supporto tecnico e logistico : Manuel Goepfert
Aiuto per la traduzione : Arnaldo La Scala

Contatto : metmap@orbifly.com




FONTI E CREDITI :

   NOAA